Flag for Kazakhstan Weather past 2 weeks in Astana, Kazakhstan

Now
1 °F

Ice fog.


Feels Like: 1 °F
Forecast: 2 / 27 °F
Wind: 1 mph from North

Location: Astana

Current Time: Apr 1, 2015 at 7:56:55 AM

Latest Report: Apr 1, 2015 at 7:00 AM


Visibility: 0 mi

Pressure: 30.30 "Hg

Humidity: 85%

Dew point: -2 °F

Location of AstanaLocation

Historic Weather in Astana — Graph

°F

Astana temperature yesterday

Maximum temperature yesterday: 28 °F (at 4:30 PM)
Minimum temperature yesterday: -4 °F (at 7:00 AM)
Average temperature yesterday: 14 °F

Past Weeks' High & Low Weather Summary

 TemperatureHumidityPressure
High37 °F (Mar 22, 5:00 PM)100% (Mar 23, 7:30 AM)30.57 "Hg (Mar 23, 7:30 AM)
Low-4 °F (Mar 31, 7:00 AM)49% (Mar 30, 2:30 PM)29.42 "Hg (Mar 24, 1:00 PM)
Average19 °F83%30.19 "Hg
* Reported Mar 17 6:00 AM — Apr 1 6:30 AM, Astana, Weather by CustomWeather, © 2015

Note: Actual official high and low records may vary slightly from our data, if they occured in-between our weather recording intervals... More about our weather records

Advertising

Astana weather history for previous 24 hours

 ConditionsComfort  
Time TempWeatherWind HumidityBarometerVisibility
6:30 AM
Wed, Apr 1
1 °FIce fog.1 mph85%30.27 "Hg0 mi
6:00 AM1 °FIce fog.1 mph85%30.27 "Hg0 mi
5:30 AM1 °FIce fog.1 mph85%30.30 "Hg0 mi
5:00 AM0 °FIce fog.1 mph84%30.27 "Hg0 mi
4:30 AM-2 °FIce fog.1 mph84%30.27 "Hg0 mi
4:00 AM-2 °FIce fog.1 mph84%30.27 "Hg0 mi
3:30 AM-2 °FLow clouds.3 mph84%30.27 "Hg0 mi
3:00 AM-2 °FIce fog.1 mph77%30.27 "Hg0 mi
2:30 AM-2 °FPassing clouds.3 mph77%30.27 "Hg1 mi
2:00 AM0 °FIce fog.3 mph78%30.27 "Hg3 mi
1:30 AM0 °FIce fog.3 mph84%30.27 "Hg2 mi
1:00 AM1 °FIce fog.1 mph85%30.27 "Hg2 mi
12:30 AM5 °FIce fog.3 mph78%30.27 "Hg2 mi
12:00 AM9 °FPassing clouds.3 mph85%30.27 "Hg1 mi
11:30 PM
Tue, Mar 31
7 °FPassing clouds.1 mph92%30.27 "Hg0 mi
11:00 PM12 °FPassing clouds.3 mph85%30.27 "Hg0 mi
10:30 PM9 °FIce fog.1 mph85%30.27 "Hg2 mi
10:00 PM12 °FPassing clouds.3 mph85%30.27 "Hg4 mi
9:30 PM16 °FPassing clouds.1 mph86%30.27 "Hg6 mi
9:00 PM18 °FPassing clouds.3 mph86%30.27 "HgN/A
8:30 PM18 °FSunny.3 mph79%30.30 "Hg10 mi
8:00 PM18 °FSunny.6 mph79%30.30 "Hg10 mi
7:30 PM19 °FSunny.8 mph73%30.30 "Hg10 mi
7:00 PM23 °FSunny.8 mph68%30.30 "Hg10 mi
6:30 PM23 °FSunny.8 mph68%30.30 "Hg10 mi
6:00 PM25 °FSunny.8 mph69%30.30 "Hg10 mi
5:30 PM25 °FSunny.6 mph63%30.30 "Hg10 mi
5:00 PM25 °FSunny.8 mph63%30.30 "Hg10 mi
4:30 PM28 °FPassing clouds.1 mph59%30.30 "HgN/A
4:00 PM25 °FPassing clouds.6 mph69%30.30 "HgN/A
3:30 PM23 °FSunny.8 mph68%30.30 "Hg10 mi
3:00 PM23 °FPassing clouds.8 mph74%30.30 "HgN/A
2:30 PM23 °FSunny.8 mph68%30.30 "Hg10 mi
2:00 PM21 °FSunny.8 mph68%30.30 "Hg10 mi
1:30 PM21 °FSunny.8 mph68%30.30 "Hg10 mi
1:00 PM19 °FSunny.10 mph68%30.33 "Hg10 mi
12:30 PM18 °FSunny.10 mph73%30.33 "Hg10 mi
12:00 PM16 °FSunny.10 mph79%30.33 "Hg10 mi
11:30 AM16 °FPassing clouds.8 mph73%30.33 "HgN/A
11:00 AM12 °FScattered clouds.8 mph73%30.36 "HgN/A
10:30 AM12 °FScattered clouds.6 mph79%30.36 "HgN/A
10:00 AM12 °FScattered clouds.8 mph85%30.33 "HgN/A
9:30 AM10 °FScattered clouds.6 mph85%30.33 "Hg5 mi
8:30 AM3 °FIce fog.6 mph92%30.33 "Hg2 mi
8:00 AM1 °FPartly sunny.3 mph85%30.33 "Hg0 mi
7:30 AM-2 °FPassing clouds.1 mph84%30.33 "Hg0 mi
7:00 AM-4 °FIce fog.No wind77%30.33 "Hg1 mi
Weather by CustomWeather, © 2015

See weather overviewHow to use our weather pages